• In Hungary
  • List of Countries
  • For 7 days
  • Water Temperature
  • Satellite Maps
  • Weather Map
  • News
  • Weather Widgets
  • user-avatar
    Login

    Hourly Weather Karlovo

    Today, 19 September, Wednesday

    Time Temperature Precipitation Wind Pressure Humidity
    00:00 +10°C° 0 mm 1 mps 657 mmHg 73%
    01:00 +9°C° 0 mm 1 mps 656 mmHg 74%
    02:00 +9°C° 0 mm 1 mps 656 mmHg 74%
    03:00 +8°C° 0 mm 1 mps 656 mmHg 75%
    04:00 +8°C° 0 mm 1 mps 656 mmHg 77%
    05:00 +8°C° 0 mm 1 mps 656 mmHg 78%
    06:00 +9°C° 0 mm 1 mps 656 mmHg 72%
    07:00 +10°C° 0 mm 0 mps 657 mmHg 67%
    08:00 +11°C° 0 mm 0 mps 658 mmHg 62%
    09:00 +14°C° 0 mm 1 mps 658 mmHg 55%
    10:00 +16°C° 0 mm 1 mps 659 mmHg 48%
    11:00 +17°C° 0 mm 2 mps 659 mmHg 41%
    12:00 +18°C° 0 mm 2 mps 659 mmHg 38%
    13:00 +19°C° 0 mm 2 mps 659 mmHg 35%
    14:00 +19°C° 0 mm 2 mps 659 mmHg 36%
    15:00 +19°C° 0 mm 2 mps 659 mmHg 37%
    16:00 +19°C° 0 mm 2 mps 658 mmHg 38%
    17:00 +18°C° 0 mm 2 mps 658 mmHg 39%
    18:00 +16°C° 0 mm 2 mps 658 mmHg 46%
    19:00 +14°C° 0 mm 1 mps 657 mmHg 52%
    20:00 +11°C° 0 mm 1 mps 656 mmHg 59%
    21:00 +11°C° 0 mm 1 mps 656 mmHg 62%
    22:00 +10°C° 0 mm 1 mps 656 mmHg 66%
    23:00 +10°C° 0 mm 1 mps 656 mmHg 69%

    Tomorrow, 20 September, Thursday

    Time Temperature Precipitation Wind Pressure Humidity
    00:00 +9°C° 0 mm 1 mps 656 mmHg 72%
    01:00 +9°C° 0 mm 1 mps 656 mmHg 74%
    02:00 +9°C° 0 mm 1 mps 656 mmHg 76%
    03:00 +8°C° 0 mm 1 mps 656 mmHg 77%
    04:00 +8°C° 0 mm 1 mps 655 mmHg 78%
    05:00 +8°C° 0 mm 1 mps 655 mmHg 79%
    06:00 +9°C° 0 mm 1 mps 656 mmHg 73%
    07:00 +11°C° 0 mm 1 mps 656 mmHg 67%
    08:00 +11°C° 0 mm 0 mps 657 mmHg 61%
    09:00 +14°C° 0 mm 1 mps 658 mmHg 53%
    10:00 +16°C° 0 mm 1 mps 658 mmHg 46%
    11:00 +19°C° 0 mm 1 mps 659 mmHg 38%
    12:00 +19°C° 0 mm 2 mps 658 mmHg 35%
    13:00 +20°C° 0 mm 2 mps 658 mmHg 31%
    14:00 +21°C° 0 mm 2 mps 658 mmHg 28%
    15:00 +20°C° 0 mm 2 mps 658 mmHg 29%
    16:00 +20°C° 0 mm 2 mps 658 mmHg 30%
    17:00 +20°C° 0 mm 2 mps 657 mmHg 32%
    18:00 +17°C° 0 mm 2 mps 657 mmHg 36%
    19:00 +15°C° 0 mm 1 mps 656 mmHg 41%
    20:00 +13°C° 0 mm 1 mps 656 mmHg 46%
    21:00 +12°C° 0 mm 1 mps 656 mmHg 49%
    22:00 +12°C° 0 mm 1 mps 655 mmHg 52%
    23:00 +11°C° 0 mm 1 mps 655 mmHg 54%

    Day after tomorrow, 21 September, Friday

    Time Temperature Precipitation Wind Pressure Humidity
    00:00 +11°C° 0 mm 1 mps 655 mmHg 56%
    01:00 +11°C° 0 mm 1 mps 655 mmHg 58%
    02:00 +10°C° 0 mm 1 mps 655 mmHg 60%
    03:00 +10°C° 0 mm 1 mps 655 mmHg 61%
    04:00 +10°C° 0 mm 1 mps 655 mmHg 63%
    05:00 +10°C° 0 mm 1 mps 655 mmHg 64%
    06:00 +11°C° 0 mm 1 mps 655 mmHg 61%
    07:00 +12°C° 0 mm 1 mps 656 mmHg 58%
    08:00 +13°C° 0 mm 0 mps 656 mmHg 54%
    09:00 +16°C° 0 mm 1 mps 657 mmHg 49%
    10:00 +19°C° 0 mm 1 mps 657 mmHg 43%
    11:00 +20°C° 0 mm 1 mps 658 mmHg 38%
    12:00 +20°C° 0 mm 2 mps 658 mmHg 36%
    13:00 +21°C° 0 mm 2 mps 658 mmHg 33%
    14:00 +21°C° 0 mm 2 mps 657 mmHg 31%
    15:00 +21°C° 0 mm 2 mps 657 mmHg 33%
    16:00 +21°C° 0 mm 1 mps 657 mmHg 35%
    17:00 +21°C° 0 mm 1 mps 656 mmHg 37%
    18:00 +19°C° 0 mm 1 mps 656 mmHg 40%
    19:00 +18°C° 0 mm 1 mps 656 mmHg 42%
    20:00 +15°C° 0 mm 1 mps 656 mmHg 44%
    21:00 +14°C° 0 mm 1 mps 656 mmHg 46%
    22:00 +14°C° 0 mm 1 mps 656 mmHg 48%
    23:00 +13°C° 0 mm 1 mps 656 mmHg 50%

    22 September, Saturday

    Time Temperature Precipitation Wind Pressure Humidity
    00:00 +13°C° 0 mm 1 mps 655 mmHg 52%
    01:00 +12°C° 0 mm 1 mps 655 mmHg 55%
    02:00 +11°C° 0 mm 1 mps 655 mmHg 58%
    03:00 +11°C° 0 mm 1 mps 655 mmHg 59%
    04:00 +11°C° 0 mm 1 mps 655 mmHg 60%
    05:00 +11°C° 0 mm 1 mps 654 mmHg 61%
    06:00 +12°C° 0 mm 1 mps 655 mmHg 57%
    07:00 +14°C° 0 mm 1 mps 656 mmHg 53%
    08:00 +15°C° 0 mm 1 mps 656 mmHg 49%
    09:00 +18°C° 0 mm 1 mps 657 mmHg 43%
    10:00 +20°C° 0 mm 1 mps 657 mmHg 38%
    11:00 +22°C° 0 mm 1 mps 658 mmHg 32%
    12:00 +23°C° 0 mm 1 mps 658 mmHg 30%
    13:00 +24°C° 0 mm 1 mps 658 mmHg 29%
    14:00 +24°C° 0 mm 1 mps 657 mmHg 27%
    15:00 +24°C° 0 mm 1 mps 657 mmHg 29%
    16:00 +23°C° 0 mm 1 mps 657 mmHg 30%
    17:00 +23°C° 0 mm 1 mps 656 mmHg 32%
    18:00 +21°C° 0 mm 1 mps 656 mmHg 36%
    19:00 +18°C° 0 mm 1 mps 656 mmHg 39%
    20:00 +15°C° 0 mm 1 mps 655 mmHg 43%
    21:00 +15°C° 0 mm 1 mps 655 mmHg 44%
    22:00 +14°C° 0 mm 1 mps 655 mmHg 45%
    23:00 +14°C° 0 mm 2 mps 655 mmHg 46%

    23 September, Sunday

    Time Temperature Precipitation Wind Pressure Humidity
    00:00 +14°C° 0 mm 2 mps 655 mmHg 47%
    01:00 +14°C° 0 mm 1 mps 655 mmHg 47%
    02:00 +13°C° 0 mm 1 mps 655 mmHg 48%
    03:00 +13°C° 0 mm 2 mps 655 mmHg 48%
    04:00 +13°C° 0 mm 2 mps 655 mmHg 48%
    05:00 +13°C° 0 mm 2 mps 655 mmHg 49%
    06:00 +14°C° 0 mm 2 mps 656 mmHg 48%
    07:00 +15°C° 0 mm 2 mps 656 mmHg 47%
    08:00 +16°C° 0 mm 2 mps 657 mmHg 46%
    09:00 +18°C° 0 mm 2 mps 658 mmHg 43%
    10:00 +20°C° 0 mm 2 mps 658 mmHg 41%
    11:00 +23°C° 0 mm 2 mps 659 mmHg 38%
    12:00 +23°C° 0 mm 2 mps 659 mmHg 37%
    13:00 +24°C° 0 mm 2 mps 659 mmHg 35%
    14:00 +25°C° 0 mm 2 mps 658 mmHg 33%
    15:00 +24°C° 0 mm 2 mps 658 mmHg 34%
    16:00 +24°C° 0 mm 1 mps 658 mmHg 36%
    17:00 +23°C° 0 mm 1 mps 657 mmHg 37%
    18:00 +21°C° 0 mm 1 mps 657 mmHg 42%
    19:00 +19°C° 0 mm 1 mps 657 mmHg 47%
    20:00 +16°C° 0 mm 1 mps 656 mmHg 51%
    21:00 +16°C° 0 mm 2 mps 656 mmHg 53%
    22:00 +15°C° 0 mm 2 mps 656 mmHg 55%
    23:00 +15°C° 0 mm 2 mps 656 mmHg 57%

    24 September, Monday

    Time Temperature Precipitation Wind Pressure Humidity
    00:00 +14°C° 0 mm 2 mps 655 mmHg 61%
    01:00 +13°C° 0 mm 2 mps 655 mmHg 64%
    02:00 +13°C° 0 mm 2 mps 654 mmHg 68%
    03:00 +12°C° 0 mm 2 mps 654 mmHg 70%
    04:00 +12°C° 0 mm 2 mps 653 mmHg 72%
    05:00 +12°C° 0 mm 2 mps 653 mmHg 74%
    06:00 +13°C° 0 mm 2 mps 653 mmHg 70%
    07:00 +14°C° 0 mm 2 mps 653 mmHg 66%
    08:00 +15°C° 0 mm 2 mps 653 mmHg 62%
    09:00 +17°C° 0 mm 2 mps 653 mmHg 54%
    10:00 +20°C° 0 mm 2 mps 653 mmHg 47%
    11:00 +23°C° 0 mm 2 mps 653 mmHg 39%
    12:00 +24°C° 0 mm 2 mps 653 mmHg 36%
    13:00 +25°C° 0 mm 2 mps 653 mmHg 32%
    14:00 +27°C° 0 mm 2 mps 652 mmHg 29%
    15:00 +26°C° 0 mm 3 mps 652 mmHg 31%
    16:00 +25°C° 0 mm 3 mps 652 mmHg 33%
    17:00 +24°C° 0 mm 3 mps 652 mmHg 35%
    18:00 +20°C° 0 mm 4 mps 652 mmHg 42%
    19:00 +15°C° 0 mm 5 mps 651 mmHg 50%
    20:00 +10°C° 0 mm 6 mps 651 mmHg 57%
    21:00 +9°C° 0 mm 6 mps 652 mmHg 57%
    22:00 +8°C° 0 mm 5 mps 652 mmHg 58%
    23:00 +7°C° 0 mm 5 mps 652 mmHg 58%
    Show more